Bennington, VT

12:40 AM EDT on August 17, 2017 (GMT -0400)
Morse State

Weather History for KDDH - January, 2014

Change the Weather History Date:

Wednesday, January 8, 2014

  Actual Average Record
Temperature  
Mean Temperature 9 °F 21 °F  
Max Temperature 16 °F 31 °F 41 °F (2016)
Min Temperature 1 °F 12 °F -12 °F (2015)
Degree Days  
Heating Degree Days 56 44  
Month to date heating degree days 423 348  
Since 1 July heating degree days 3086 3120  
Cooling Degree Days 0 0  
Month to date cooling degree days 0 0  
Year to date cooling degree days 0 0  
Moisture  
Dew Point -3 °F    
Average Humidity 67    
Maximum Humidity 87    
Minimum Humidity 46    
Precipitation  
Precipitation 0.00 in 0.10 in 0.00 in (2017)
Month to date precipitation 1.45 0.88  
Year to date precipitation 1.45 0.88  
Sea Level Pressure  
Sea Level Pressure 30.40 in    
Wind  
Wind Speed 3 mph (West)    
Max Wind Speed 22 mph    
Max Gust Speed 30 mph    
Visibility 10 miles    
Events      
T = Trace of Precipitation, MM = Missing Value Source: NWS Daily Summary

Daily Weather History Graph

Daily Weather History Graph

Search for Another Location

Airport or City:

Trip Planner

Search our weather history database for the weather conditions in past years. The results will help you decide how hot, cold, wet, or windy it might be!

Date:

Astronomy

Jan. 08, 2014 Rise Set
Actual Time 7:23 AM EST 4:36 PM EST
Civil Twilight 6:51 AM EST 5:08 PM EST
Nautical Twilight 6:16 AM EST 5:43 PM EST
Astronomical Twilight 5:42 AM EST 6:17 PM EST
Moon 11:32 AM EST (1/8) 12:20 AM EST (1/8)
Length of Visible Light 10h 16m
Length of Day
9h 12m
First Quarter, 56% of the Moon is Illuminated
Jan 8
First Quarter
Jan 15
Full
Jan 24
Last Quarter
Jan 30
New
Feb 6
First Quarter

Hourly Weather History & Observations

Time (EST) Temp. Windchill Dew Point Humidity Pressure Visibility Wind Dir Wind Speed Gust Speed Precip Events Conditions
12:54 AM 5.0 °F -2.1 °F -9.9 °F 50% 30.26 in 10.0 mi Variable 3.5 mph - N/A   Clear
1:54 AM 5.0 °F -6.9 °F -9.9 °F 50% 30.30 in 10.0 mi WSW 6.9 mph - N/A   Clear
2:54 AM 5.0 °F - -9.0 °F 52% 30.31 in 10.0 mi Calm Calm - N/A   Clear
3:54 AM 3.9 °F - -9.0 °F 55% 30.34 in 10.0 mi Calm Calm - N/A   Clear
4:54 AM 3.9 °F - -9.0 °F 55% 30.35 in 10.0 mi Calm Calm - N/A   Clear
5:54 AM 1.9 °F - -7.1 °F 66% 30.37 in 10.0 mi Calm Calm - N/A   Clear
6:54 AM 3.0 °F - -6.0 °F 66% 30.40 in 10.0 mi Calm Calm - N/A   Clear
7:54 AM 1.9 °F -5.6 °F -2.9 °F 80% 30.44 in 9.0 mi SW 3.5 mph - N/A   Clear
8:54 AM 7.0 °F - -5.1 °F 58% 30.46 in 10.0 mi Calm Calm - N/A   Clear
9:54 AM 10.0 °F -0.9 °F -4.0 °F 53% 30.46 in 10.0 mi WNW 6.9 mph - N/A   Clear
10:54 AM 10.9 °F -0.8 °F -2.9 °F 54% 30.44 in 10.0 mi WNW 8.1 mph - N/A   Clear
11:54 AM 12.9 °F 2.6 °F -2.0 °F 51% 30.41 in 10.0 mi Variable 6.9 mph - N/A   Clear
12:54 PM 14.0 °F 3.9 °F -2.0 °F 49% 30.40 in 10.0 mi Variable 6.9 mph - N/A   Clear
1:54 PM 15.1 °F 9.4 °F -2.0 °F 47% 30.39 in 10.0 mi Variable 3.5 mph - N/A   Clear
2:54 PM 16.0 °F 5.3 °F -0.9 °F 47% 30.40 in 10.0 mi West 8.1 mph - N/A   Clear
3:54 PM 16.0 °F 7.4 °F -0.9 °F 47% 30.40 in 10.0 mi Variable 5.8 mph - N/A   Clear
4:54 PM 14.0 °F 8.2 °F -0.9 °F 52% 30.41 in 10.0 mi West 3.5 mph - N/A   Clear
5:54 PM 12.9 °F 6.9 °F -0.9 °F 54% 30.43 in 10.0 mi West 3.5 mph - N/A   Clear
6:54 PM 10.9 °F 4.7 °F 1.0 °F 64% 30.45 in 10.0 mi West 3.5 mph - N/A   Clear
7:54 PM 8.1 °F - 1.9 °F 76% 30.46 in 10.0 mi Calm Calm - N/A   Clear
8:54 PM 9.0 °F - 3.0 °F 77% 30.46 in 10.0 mi Calm Calm - N/A   Overcast
9:54 PM 10.0 °F - 3.9 °F 76% 30.46 in 10.0 mi Calm Calm - N/A   Overcast
10:54 PM 10.9 °F - 5.0 °F 77% 30.45 in 10.0 mi Calm Calm - N/A   Overcast
11:54 PM 10.9 °F - 6.1 °F 81% 30.43 in 10.0 mi Calm Calm - N/A   Overcast